CYKO

Akulivik Airport

ICAO Code CYKO
IATA Code AKV
Name Akulivik Airport
Location Akulivik, Quebec, CA
Elevation 76 Feet / 23.2 Meters
Latitude 60.81861111
Longitude -78.14861111
METAR CYKO 252100Z 30012KT 15SM -DZ OVC003 02/01 A3014 RMK ST8 LAST STFD OBS/NEXT OBS 261200UTC SLP211
Extra information Display Charts and CFS
Display NOTAMS
Runway Length Width Surface Elevation
08 3521 ft 100 ft GVL 42 ft
26 3521 ft 100 ft GVL 76 ft